Torna al catalogo

TIROS 1

AttivoMeteoLEO
NORAD 29·PAYLOAD·🇺🇸 United States

Lanciato Apr 1, 1960 da Cape Canaveral Space Force Station

Loading…

Prossimi Passaggi (prossime 24 ore)

TLE

AggiornatoSource: Space-Track

Epoca: Sep 5, 2026, 14:31 UTC

1 00029U 60002B   26248.60518927  .00000177  00000-0  52600-4 0  9991
2 00029  48.3799   2.4373 0022692 255.4648 104.3748 14.78859122554038

Traccia TIROS 1 in tempo reale con AllMySat

Download on the App Store